Location: Ithaca
(42.4410°N, 76.4970°W)
Time: 09:33:26
(UTC-04:00)

Hubble Space Telescope - Visible Passes

Search period start: 27 May 2017 00:00
Search period end: 06 June 2017 00:00
Orbit: 538 x 541 km, 28.5° (Epoch: 26 May)

Date Brightness Start Highest point End Pass type
(mag) Time Alt. Az. Time Alt. Az. Time Alt. Az.
30 May 2.9 21:58:00 10° SSW 21:58:52 11° S 21:58:52 11° S visible
31 May 2.8 21:47:38 10° SSW 21:49:05 12° S 21:49:32 11° S visible
01 Jun 2.9 21:37:25 10° SSW 21:38:51 12° S 21:40:06 10° SSE visible
02 Jun 2.9 21:27:18 10° SSW 21:28:39 11° S 21:30:00 10° SSE visible
03 Jun 3.0 21:17:21 10° SSW 21:18:27 11° S 21:19:32 10° S visible
